ABS-3A

Last updated on Tue Oct 08 2024 00:02:40 GMT+0000 (Coordinated Universal Time)

1 40424U 15010A 24281.32793407 -.00000015 00000+0 00000+0 0 9998 2 40424 0.0119 121.1454 0001528 28.9816 341.4185 1.00270813 35180
UTC large
Height (km)
Speed (km/s)
/
Latitude / Longitude
Inclination (degrees)
Orbital Period (minutes)
Azimuth
Elevation
Range (km)
Doppler Factor

Next 0 passes for location: London (51.5072 / 0.1276)

Sorry there are no passes over London.